Kuching, Malaysia

9:50 AM MYT on February 26, 2017 (GMT +0800)
Kuching International

Weather History for WBGG - September, 2013

Change the Weather History Date:

Saturday, September 21, 2013

  Actual Average Record
Temperature  
Mean Temperature 83 °F -  
Max Temperature 91 °F 89 °F - ()
Min Temperature 75 °F 73 °F - ()
Cooling Degree Days 18    
Growing Degree Days 33 (Base 50)    
Moisture  
Dew Point 76 °F    
Average Humidity 80    
Maximum Humidity 100    
Minimum Humidity 46    
Precipitation  
Precipitation 0.00 in 0.42 in - ()
Sea Level Pressure  
Sea Level Pressure 29.78 in    
Wind  
Wind Speed 3 mph ()    
Max Wind Speed 10 mph    
Max Gust Speed -    
Visibility 5.7 miles    
Events Thunderstorm    
T = Trace of Precipitation, MM = Missing Value Source: Averaged Metar Reports

Daily Weather History Graph

Daily Weather History Graph

Search for Another Location

Airport or City:

Trip Planner

Search our weather history database for the weather conditions in past years. The results will help you decide how hot, cold, wet, or windy it might be!

Date:

Astronomy

Sep. 21, 2013 Rise Set
Actual Time 6:28 AM MYT 6:35 PM MYT
Civil Twilight 6:07 AM MYT 6:55 PM MYT
Nautical Twilight 5:43 AM MYT 7:19 PM MYT
Astronomical Twilight 5:19 AM MYT 7:43 PM MYT
Moon 8:03 PM MYT (9/21) 7:39 AM MYT (9/21)
Length of Visible Light 12h 47m
Length of Day
12h 06m
Waning Gibbous, 97% of the Moon is Illuminated
Sep 21
Waning Gibbous
Sep 27
Last Quarter
Oct 5
New
Oct 12
First Quarter
Oct 19
Full

Hourly Weather History & Observations

Time (MYT) Temp. Heat Index Dew Point Humidity Pressure Visibility Wind Dir Wind Speed Gust Speed Precip Events Conditions
12:00 AM 77.0 °F - 75.2 °F 94% 29.80 in 6.2 mi East 1.2 mph - N/A   Mostly Cloudy
12:30 AM 77.0 °F - 75.2 °F 94% 29.80 in 6.2 mi Calm Calm - N/A   Mostly Cloudy
1:00 AM 77.0 °F - 75.2 °F 94% 29.80 in 6.2 mi SSE 2.3 mph - N/A   Mostly Cloudy
1:30 AM 75.2 °F - 75.2 °F 100% 29.80 in 6.2 mi SSW 2.3 mph - N/A   Mostly Cloudy
2:00 AM 76 °F - 74 °F 92% 29.80 in 9 mi SSE 3.5 mph - -   Partly Cloudy
2:00 AM 75.2 °F - 73.4 °F 94% 29.80 in 6.2 mi SSE 3.5 mph - N/A   Mostly Cloudy
2:30 AM 75.2 °F - 73.4 °F 94% 29.77 in 5.0 mi South 3.5 mph - N/A   Mostly Cloudy
3:00 AM 75.2 °F - 73.4 °F 94% 29.80 in 5.0 mi South 2.3 mph - N/A   Mostly Cloudy
3:30 AM 75.2 °F - 73.4 °F 94% 29.80 in 5.0 mi SSE 2.3 mph - N/A   Mostly Cloudy
4:00 AM 75.2 °F - 73.4 °F 94% 29.80 in 5.0 mi SW 1.2 mph - N/A   Mostly Cloudy
4:30 AM 77.0 °F - 75.2 °F 94% 29.80 in 5.0 mi SSW 2.3 mph - N/A   Mostly Cloudy
5:00 AM 76 °F - 74 °F 92% 29.81 in 5 mi SE 2.3 mph - -   Partly Cloudy
5:00 AM 75.2 °F - 73.4 °F 94% 29.80 in 5.0 mi SE 2.3 mph - N/A   Mostly Cloudy
5:30 AM 75.2 °F - 73.4 °F 94% 29.80 in 5.0 mi ESE 3.5 mph - N/A   Mostly Cloudy
6:00 AM 75.2 °F - 73.4 °F 94% 29.80 in 5.0 mi SE 2.3 mph - N/A   Mostly Cloudy
6:30 AM 75.2 °F - 73.4 °F 94% 29.83 in 3.7 mi ESE 4.6 mph - N/A   Mostly Cloudy
7:00 AM 75.2 °F - 73.4 °F 94% 29.83 in 4.3 mi Calm Calm - N/A   Mostly Cloudy
7:30 AM 77.0 °F - 73.4 °F 89% 29.83 in 3.7 mi ESE 2.3 mph - N/A   Mostly Cloudy
8:00 AM 78.8 °F - 75.2 °F 89% 29.83 in 3.1 mi ESE 3.5 mph - N/A   Haze
8:30 AM 80.6 °F 86.2 °F 75.2 °F 84% 29.86 in 3.1 mi ESE 2.3 mph - N/A   Haze
9:00 AM 82.4 °F 90.9 °F 77.0 °F 84% 29.86 in 3.1 mi SE 4.6 mph - N/A   Haze
9:30 AM 84.2 °F 94.1 °F 77.0 °F 79% 29.86 in 3.1 mi South 3.5 mph - N/A   Haze
10:00 AM 86.0 °F 96.9 °F 77.0 °F 74% 29.86 in 3.7 mi SE 4.6 mph - N/A   Mostly Cloudy
10:30 AM 87.8 °F 102.5 °F 78.8 °F 75% 29.83 in 5.0 mi SE 5.8 mph - N/A   Mostly Cloudy
11:00 AM 87.8 °F 99.7 °F 77.0 °F 70% 29.83 in 5.0 mi SSE 6.9 mph - N/A   Mostly Cloudy
11:30 AM 89.6 °F 102.2 °F 77.0 °F 66% 29.83 in 5.0 mi South 9.2 mph - N/A   Mostly Cloudy
12:00 PM 89.6 °F 102.2 °F 77.0 °F 66% 29.80 in 6.2 mi SSE 9.2 mph - N/A   Mostly Cloudy
12:30 PM 89.6 °F 99.8 °F 75.2 °F 62% 29.77 in 6.2 mi SE 10.4 mph - N/A   Mostly Cloudy
1:00 PM 91.4 °F 105.1 °F 77.0 °F 63% 29.77 in 6.2 mi SSE 8.1 mph - N/A   Mostly Cloudy
1:30 PM 91.4 °F 102.5 °F 75.2 °F 59% 29.74 in 6.2 mi SE 10.4 mph - N/A   Mostly Cloudy
2:00 PM 91.4 °F 102.5 °F 75.2 °F 59% 29.74 in 6.2 mi SSE 9.2 mph - N/A   Mostly Cloudy
2:30 PM 91.4 °F 95.4 °F 68.0 °F 46% 29.71 in 6.2 mi South 9.2 mph - N/A   Mostly Cloudy
3:00 PM 91.4 °F 98.4 °F 71.6 °F 52% 29.71 in 6.2 mi South 6.9 mph - N/A   Mostly Cloudy
3:30 PM 91.4 °F 102.5 °F 75.2 °F 59% 29.71 in 6.2 mi South 5.8 mph - N/A   Mostly Cloudy
4:00 PM 89.6 °F 99.8 °F 75.2 °F 62% 29.71 in 6.2 mi SSE 5.8 mph - N/A   Mostly Cloudy
4:30 PM 89.6 °F 102.2 °F 77.0 °F 66% 29.71 in 6.2 mi SSE 4.6 mph - N/A   Mostly Cloudy
5:00 PM 90 °F - 77 °F 57% 29.72 in 9 mi South 3.5 mph - -   Haze
5:00 PM 89.6 °F 102.2 °F 77.0 °F 66% 29.71 in 6.2 mi South 3.5 mph - N/A   Mostly Cloudy
5:30 PM 89.6 °F 102.2 °F 77.0 °F 66% 29.71 in 6.2 mi SE 3.5 mph - N/A   Mostly Cloudy
6:00 PM 89.6 °F 102.2 °F 77.0 °F 66% 29.71 in 6.2 mi SSE 2.3 mph - N/A   Mostly Cloudy
6:30 PM 87.8 °F 99.7 °F 77.0 °F 70% 29.74 in 6.2 mi SSE 2.3 mph - N/A   Mostly Cloudy
7:00 PM 87.8 °F 99.7 °F 77.0 °F 70% 29.74 in 6.2 mi SE 1.2 mph - N/A   Mostly Cloudy
7:30 PM 86.0 °F 99.3 °F 78.8 °F 79% 29.74 in 6.2 mi NW 9.2 mph - N/A   Mostly Cloudy
8:00 PM 85 °F - 79 °F 77% 29.78 in 7 mi NW 9.2 mph - -   Haze
8:00 PM 84.2 °F 96.1 °F 78.8 °F 84% 29.77 in 6.2 mi NW 9.2 mph - N/A   Mostly Cloudy
8:30 PM 84.2 °F 96.1 °F 78.8 °F 84% 29.77 in 6.2 mi NNW 6.9 mph - N/A   Mostly Cloudy
9:00 PM 84.2 °F 96.1 °F 78.8 °F 84% 29.77 in 6.2 mi NNW 8.1 mph - N/A   Mostly Cloudy
9:30 PM 84.2 °F 96.1 °F 78.8 °F 84% 29.80 in 6.2 mi NNW 5.8 mph - N/A   Mostly Cloudy
10:00 PM 84.2 °F 96.1 °F 78.8 °F 84% 29.80 in 6.2 mi WNW 4.6 mph - N/A   Mostly Cloudy
10:30 PM 84.2 °F 96.1 °F 78.8 °F 84% 29.80 in 6.2 mi West 2.3 mph - N/A Thunderstorm Thunderstorm
11:00 PM 83 °F - 79 °F 85% 29.82 in 7 mi WSW 3.5 mph - - Thunderstorm Light Thunderstorm
11:00 PM 84.2 °F 96.1 °F 78.8 °F 84% 29.80 in 6.2 mi WSW 3.5 mph - N/A   Mostly Cloudy
11:30 PM 82.4 °F 92.4 °F 78.8 °F 89% 29.80 in 6.2 mi South 3.5 mph - N/A Thunderstorm Thunderstorm